TimeEDT,TemperatureF,Dew PointF,Humidity,Sea Level PressureIn,VisibilityMPH,Wind Direction,Wind SpeedMPH,Gust SpeedMPH,PrecipitationIn,Events,Conditions,WindDirDegrees,DateUTC
1:51 AM,46.0,36.0,68,30.26,10.0,SE,5.8,-,N/A,,Overcast,140,2012-10-14 05:51:00
2:51 AM,46.0,39.0,76,30.21,10.0,South,6.9,-,0.00,,Overcast,170,2012-10-14 06:51:00
3:51 AM,48.0,41.0,77,30.17,10.0,South,10.4,-,N/A,,Overcast,170,2012-10-14 07:51:00
4:51 AM,51.1,43.0,74,30.17,10.0,South,11.5,-,0.00,,Overcast,190,2012-10-14 08:51:00
5:51 AM,52.0,45.0,77,30.19,10.0,SW,4.6,-,0.00,,Overcast,220,2012-10-14 09:51:00
6:51 AM,52.0,45.0,77,30.15,10.0,SSW,11.5,-,0.01,Rain,Light Rain,200,2012-10-14 10:51:00
7:51 AM,51.1,46.0,83,30.14,10.0,SSW,10.4,-,0.02,Rain,Light Rain,200,2012-10-14 11:51:00
8:51 AM,52.0,46.9,83,30.14,10.0,SSW,9.2,-,0.01,Rain,Light Rain,200,2012-10-14 12:51:00
9:51 AM,54.0,48.9,83,30.14,10.0,South,10.4,-,0.03,Rain,Light Rain,190,2012-10-14 13:51:00
10:51 AM,55.9,50.0,80,30.13,10.0,South,9.2,-,0.00,,Mostly Cloudy,190,2012-10-14 14:51:00
11:51 AM,59.0,48.9,69,30.11,10.0,SSW,12.7,21.9,0.00,,Mostly Cloudy,210,2012-10-14 15:51:00
12:51 PM,59.0,48.0,67,30.09,10.0,SSW,12.7,-,N/A,,Overcast,210,2012-10-14 16:51:00
1:51 PM,64.9,50.0,58,30.06,10.0,SSW,5.8,-,N/A,,Mostly Cloudy,200,2012-10-14 17:51:00
2:51 PM,68.0,48.9,50,30.02,10.0,SSW,15.0,-,N/A,,Scattered Clouds,200,2012-10-14 18:51:00
3:51 PM,68.0,48.9,50,30.01,10.0,SSW,11.5,19.6,N/A,,Partly Cloudy,200,2012-10-14 19:51:00
4:51 PM,66.9,48.9,52,30.00,10.0,South,12.7,-,N/A,,Partly Cloudy,190,2012-10-14 20:51:00
5:51 PM,64.9,50.0,58,29.99,10.0,South,9.2,-,N/A,,Mostly Cloudy,180,2012-10-14 21:51:00
6:51 PM,63.0,52.0,67,29.99,10.0,South,9.2,-,N/A,,Scattered Clouds,180,2012-10-14 22:51:00
7:51 PM,62.1,53.1,72,29.98,10.0,South,11.5,-,N/A,,Partly Cloudy,180,2012-10-14 23:51:00
8:51 PM,61.0,53.1,75,29.97,10.0,South,10.4,-,N/A,,Partly Cloudy,180,2012-10-15 00:51:00
9:51 PM,61.0,54.0,78,29.97,10.0,South,12.7,-,N/A,,Scattered Clouds,170,2012-10-15 01:51:00
10:51 PM,61.0,55.0,81,29.96,10.0,South,10.4,-,N/A,,Scattered Clouds,180,2012-10-15 02:51:00
11:51 PM,60.1,55.0,83,29.94,10.0,South,6.9,-,N/A,,Scattered Clouds,180,2012-10-15 03:51:00